Regional Weather Roundup
Issued by NWS

Home | Current Version | Previous Version | Text Only | Print | Product List | Glossary Off
Versions: 1 2 3 4 5 6 7 8 9 10 11 12 13 14 15 16 17 18 19 20 21 22 23 24 25 26 27 28 29 30 31 32 33 34 35 36 37 38 39 40 41 42 43 44 45 46 47 48 49 50

000
ASUS43 KIND 060409
RWRIN

WEATHER ROUNDUP FOR INDIANA
NATIONAL WEATHER SERVICE INDIANAPOLIS IN
1200 AM EDT MON JUL 06 2015

NOTE: "FAIR" INDICATES FEW OR NO CLOUDS BELOW 12,000 FEET WITH NO
SIGNIFICANT WEATHER AND/OR OBSTRUCTIONS TO VISIBILITY.

* - STATION DOES NOT REPORT WEATHER SUCH AS PRECIPITATION OR FOG.

+ - STATION NOT QUALITY CONTROLLED BY THE NATIONAL WEATHER SERVICE.
    USE DATA WITH CAUTION...ESPECIALLY DEWPOINT AND RELATIVE
    HUMIDITY OBSERVATIONS.

INZ001>003-010>013-019-020-060500-
NORTHWEST INDIANA

CITY           SKY/WX    TMP DP  RH WIND       PRES   REMARKS
GARY /AIRPORT/ CLEAR    N/A N/A N/A S3        30.03F
KNOX *+        CLEAR     64  63  94 CALM      30.04F
LA PORTE +     PTCLDY    71  62  72 S3        30.05F
MICHIGAN CITY+ CLEAR     70  59  68 S3        30.04F
MONTICELLO +   CLEAR     71  66  82 SE3       30.04F
RENSSELAER +   CLEAR     70  64  83 CALM      30.05S
VALPARAISO     CLEAR     71  61  70 SE6       30.05S

$$

LMZ046-743>745-060500-
SOUTHERN LAKE MICHIGAN

STATION/POSITION TIME  TEMP    WIND        PRES    WAVE
                       AIR SEA DIR/SP/G            HT
                 (UTC) (F)     (DEG/KT/KT) (MB)    (FT)
BURNS HARBOR     0400   75     180/  5/ 11 1017.6R
MICHIGAN CITY    0400   73     130/  6/  8   N/A
5NW MICH CITY    0400   70 67  170/  6/  8   N/A     0

$$

INZ004-005-014>016-021>024-060500-
NORTH CENTRAL INDIANA

CITY           SKY/WX    TMP DP  RH WIND       PRES   REMARKS
GOSHEN         PTCLDY    67  61  81 S3        30.06F
LOGANSPORT +   CLEAR     68  59  73 S3        30.07F
PERU/GRISSOM   PTCLDY    69  64  84 SE5       30.06F
ROCHESTER +    CLEAR     72  66  83 S3        30.07F
SOUTH BEND     CLEAR     69  61  75 CALM      30.05F
WARSAW +         N/A     64  61  88 CALM      30.06F

$$

INZ006>009-017-018-025>027-060500-
NORTHEAST INDIANA

CITY           SKY/WX    TMP DP  RH WIND       PRES   REMARKS
ANGOLA *+        N/A     66  63  88 CALM      30.09S
AUBURN +       PTCLDY    63  59  88 CALM      30.08F
FORT WAYNE     PTCLDY    67  62  84 CALM      30.08F
HUNTINGTON +   PTCLDY    65  64  95 CALM      30.07F

$$

INZ028-029-035-036-043>045-051>053-060500-
WEST CENTRAL INDIANA

CITY           SKY/WX    TMP DP  RH WIND       PRES   REMARKS
CRAWFORDSVL +  CLEAR     66  64  93 SE6       30.06F FOG
GREENCASTLE +  CLEAR     68  63  83 CALM      30.08F FOG
LAFAYETTE      CLEAR     69  64  84 S5        30.05S
TERRE HAUTE    CLEAR     72  68  87 S6        30.06S

$$

INZ030>032-037>040-046>048-054>057-064-065-060500-
CENTRAL INDIANA

CITY           SKY/WX    TMP DP  RH WIND       PRES   REMARKS
CP ATTERBURY + FOG       63  61  94 CALM      30.10S VSB 1/2
FISHERS *+     CLEAR     64  63  94 CALM      30.09S
FRANKFORT +    CLEAR    N/A N/A N/A CALM      30.08F
GREENWOOD *+   CLEAR     66  63  88 CALM      30.09S
INDIANAPOLIS   CLEAR     70  62  76 SE7       30.06S
-EAGLE CREEK   CLEAR     69  62  78 CALM      30.07S
KOKOMO *+      PTCLDY    66  63  88 SE5       30.07F
MARION +       PTCLDY    65  63  94 CALM      30.08F
MT COMFORT *+  CLEAR     63 N/A N/A S3        30.09S
SHELBYVILLE    CLEAR     65  62  90 SE5       30.09R
ZIONSVILLE +   CLEAR     66  62  87 CALM      30.09S

$$

INZ033-034-041-042-049-050-058-059-060500-
EAST CENTRAL INDIANA

CITY           SKY/WX    TMP DP  RH WIND       PRES   REMARKS
MUNCIE         PTCLDY    66  61  84 SW3       30.09S

$$

INZ060-061-067>069-081>083-085>088-060500-
SOUTHWEST INDIANA

CITY           SKY/WX    TMP DP  RH WIND       PRES   REMARKS
EVANSVILLE     CLEAR     74  69  85 CALM      30.07S HAZE
HUNTINGBURG *+ CLEAR     72  66  83 SE5       30.08F
WASHINGTON +   CLEAR     71  67  87 S3        30.07S

$$

INZ062-063-066-070>080-084-089>092-060500-
SOUTH CENTRAL AND SOUTHEAST INDIANA

CITY           SKY/WX    TMP DP  RH WIND       PRES   REMARKS
BLOOMINGTON    CLEAR     68  66  93 S3        30.09S
MADISON *+     CLEAR     64  63  94 CALM      30.13S
NORTH VERNON + PTCLDY    66  66 100 CALM      30.11R
SEYMOUR +      PTCLDY    66  64  94 CALM      30.09R

$$




USA.gov is the U.S. government's official web portal to all federal, state and local government web resources and services.